When you browse on this site, cookies collect data to enhance your experience and personalize the content and advertising you see.
Visit our Privacy Policy to learn more. By continuing to use the site, you agree to this use of cookies and data.
  • en Suisse
  • Liste des pays
  • À 7 jours
  • Température de l'eau
  • Carte satellitaire
  • Carte météo
  • Widgets météo
  • user-avatar
    Se connecter

    Météo par heure à Achtarak

    Ce jour, 23 Mai, Jeudi

    Heure Température Précipitation Vent Pression Humidité
    00:00 +15°C° 0.1 mm 1 m/s 659 mmHg 68%
    01:00 +14°C° 0.1 mm 1 m/s 659 mmHg 68%
    02:00 +14°C° 0.1 mm 1 m/s 658 mmHg 69%
    03:00 +14°C° 0.1 mm 1 m/s 658 mmHg 69%
    04:00 +14°C° 0 mm 1 m/s 658 mmHg 68%
    05:00 +15°C° 0 mm 1 m/s 658 mmHg 66%
    06:00 +15°C° 0 mm 1 m/s 658 mmHg 65%
    07:00 +18°C° 0.1 mm 1 m/s 658 mmHg 61%
    08:00 +18°C° 0.1 mm 2 m/s 658 mmHg 57%
    09:00 +19°C° 0.1 mm 2 m/s 658 mmHg 53%
    10:00 +20°C° 0.1 mm 3 m/s 658 mmHg 51%
    11:00 +21°C° 0.1 mm 3 m/s 658 mmHg 49%
    12:00 +21°C° 0.1 mm 3 m/s 658 mmHg 46%
    13:00 +22°C° 0.3 mm 3 m/s 658 mmHg 46%
    14:00 +22°C° 0.3 mm 3 m/s 658 mmHg 46%
    15:00 +22°C° 0.3 mm 3 m/s 658 mmHg 46%
    16:00 +23°C° 0.8 mm 2 m/s 657 mmHg 49%
    17:00 +21°C° 0.8 mm 2 m/s 657 mmHg 52%
    18:00 +22°C° 0.8 mm 1 m/s 657 mmHg 56%
    19:00 +20°C° 0.6 mm 1 m/s 657 mmHg 59%
    20:00 +19°C° 0.6 mm 1 m/s 657 mmHg 63%
    21:00 +18°C° 0.6 mm 1 m/s 658 mmHg 66%
    22:00 +16°C° 0.2 mm 1 m/s 658 mmHg 68%
    23:00 +15°C° 0.2 mm 1 m/s 658 mmHg 70%

    Demain, 24 Mai, Vendredi

    Heure Température Précipitation Vent Pression Humidité
    00:00 +15°C° 0.2 mm 1 m/s 658 mmHg 71%
    01:00 +15°C° 0.1 mm 1 m/s 658 mmHg 72%
    02:00 +14°C° 0.1 mm 1 m/s 658 mmHg 73%
    03:00 +14°C° 0.1 mm 1 m/s 658 mmHg 74%
    04:00 +15°C° 0.1 mm 1 m/s 658 mmHg 73%
    05:00 +15°C° 0.1 mm 1 m/s 658 mmHg 72%
    06:00 +16°C° 0.1 mm 1 m/s 658 mmHg 72%
    07:00 +17°C° 0.1 mm 2 m/s 658 mmHg 66%
    08:00 +19°C° 0.1 mm 2 m/s 659 mmHg 60%
    09:00 +20°C° 0.1 mm 3 m/s 659 mmHg 54%
    10:00 +21°C° 0.1 mm 3 m/s 659 mmHg 51%
    11:00 +22°C° 0.1 mm 3 m/s 659 mmHg 48%
    12:00 +25°C° 0.1 mm 3 m/s 659 mmHg 45%
    13:00 +25°C° 0.4 mm 3 m/s 659 mmHg 44%
    14:00 +25°C° 0.4 mm 3 m/s 659 mmHg 43%
    15:00 +26°C° 0.4 mm 3 m/s 658 mmHg 42%
    16:00 +25°C° 1 mm 3 m/s 658 mmHg 46%
    17:00 +24°C° 1 mm 2 m/s 658 mmHg 50%
    18:00 +23°C° 1 mm 2 m/s 658 mmHg 54%
    19:00 +21°C° 0.6 mm 2 m/s 659 mmHg 57%
    20:00 +19°C° 0.6 mm 2 m/s 659 mmHg 60%
    21:00 +18°C° 0.6 mm 2 m/s 659 mmHg 63%
    22:00 +18°C° 0.4 mm 2 m/s 659 mmHg 64%
    23:00 +17°C° 0.4 mm 2 m/s 659 mmHg 64%

    Après-demain, 25 Mai, Samedi

    Heure Température Précipitation Vent Pression Humidité
    00:00 +17°C° 0.4 mm 2 m/s 659 mmHg 64%
    01:00 +17°C° 0.2 mm 2 m/s 659 mmHg 63%
    02:00 +16°C° 0.2 mm 2 m/s 659 mmHg 62%
    03:00 +16°C° 0.2 mm 2 m/s 659 mmHg 60%
    04:00 +17°C° 0.1 mm 2 m/s 659 mmHg 58%
    05:00 +17°C° 0.1 mm 2 m/s 660 mmHg 56%
    06:00 +18°C° 0.1 mm 2 m/s 660 mmHg 54%
    07:00 +20°C° 0 mm 2 m/s 660 mmHg 49%
    08:00 +22°C° 0 mm 3 m/s 660 mmHg 43%
    09:00 +25°C° 0 mm 3 m/s 660 mmHg 37%
    10:00 +26°C° 0 mm 4 m/s 660 mmHg 35%
    11:00 +27°C° 0 mm 4 m/s 660 mmHg 34%
    12:00 +28°C° 0 mm 5 m/s 660 mmHg 32%
    13:00 +28°C° 0.1 mm 5 m/s 660 mmHg 32%
    14:00 +29°C° 0.1 mm 5 m/s 659 mmHg 31%
    15:00 +29°C° 0.1 mm 6 m/s 659 mmHg 30%
    16:00 +28°C° 0 mm 5 m/s 659 mmHg 32%
    17:00 +28°C° 0 mm 3 m/s 659 mmHg 35%
    18:00 +27°C° 0 mm 2 m/s 659 mmHg 37%
    19:00 +25°C° 0.3 mm 2 m/s 659 mmHg 38%
    20:00 +22°C° 0.3 mm 3 m/s 659 mmHg 40%
    21:00 +20°C° 0.3 mm 3 m/s 659 mmHg 41%
    22:00 +19°C° 0.1 mm 3 m/s 659 mmHg 43%
    23:00 +19°C° 0.1 mm 2 m/s 659 mmHg 44%

    26 Mai, Dimanche

    Heure Température Précipitation Vent Pression Humidité
    00:00 +18°C° 0.1 mm 2 m/s 658 mmHg 46%
    01:00 +18°C° 0.1 mm 2 m/s 658 mmHg 46%
    02:00 +17°C° 0.1 mm 2 m/s 658 mmHg 47%
    03:00 +17°C° 0.1 mm 2 m/s 658 mmHg 48%
    04:00 +17°C° 0.2 mm 2 m/s 658 mmHg 49%
    05:00 +18°C° 0.2 mm 2 m/s 658 mmHg 50%
    06:00 +18°C° 0.2 mm 2 m/s 658 mmHg 51%
    07:00 +20°C° 0.1 mm 2 m/s 658 mmHg 46%
    08:00 +22°C° 0.1 mm 3 m/s 658 mmHg 41%
    09:00 +25°C° 0.1 mm 3 m/s 659 mmHg 36%
    10:00 +26°C° 0.1 mm 3 m/s 659 mmHg 35%
    11:00 +27°C° 0.1 mm 4 m/s 658 mmHg 34%
    12:00 +28°C° 0.1 mm 4 m/s 658 mmHg 33%
    13:00 +28°C° 0.1 mm 4 m/s 658 mmHg 33%
    14:00 +28°C° 0.1 mm 4 m/s 658 mmHg 32%
    15:00 +29°C° 0.1 mm 4 m/s 658 mmHg 32%
    16:00 +28°C° 0 mm 3 m/s 658 mmHg 34%
    17:00 +27°C° 0 mm 3 m/s 658 mmHg 36%
    18:00 +26°C° 0 mm 3 m/s 658 mmHg 38%
    19:00 +24°C° 0 mm 3 m/s 658 mmHg 42%
    20:00 +21°C° 0 mm 3 m/s 658 mmHg 46%
    21:00 +19°C° 0 mm 3 m/s 659 mmHg 51%
    22:00 +18°C° 0.1 mm 3 m/s 659 mmHg 57%
    23:00 +17°C° 0.1 mm 4 m/s 659 mmHg 64%

    27 Mai, Lundi

    Heure Température Précipitation Vent Pression Humidité
    00:00 +15°C° 0.1 mm 4 m/s 659 mmHg 70%
    01:00 +16°C° 0.2 mm 3 m/s 659 mmHg 71%
    02:00 +16°C° 0.2 mm 3 m/s 659 mmHg 72%
    03:00 +14°C° 0.2 mm 3 m/s 659 mmHg 74%
    04:00 +16°C° 0 mm 3 m/s 659 mmHg 71%
    05:00 +16°C° 0 mm 2 m/s 660 mmHg 69%
    06:00 +17°C° 0 mm 2 m/s 660 mmHg 67%
    07:00 +19°C° 0 mm 2 m/s 660 mmHg 58%
    08:00 +20°C° 0 mm 2 m/s 661 mmHg 49%
    09:00 +23°C° 0 mm 2 m/s 661 mmHg 40%
    10:00 +24°C° 0 mm 2 m/s 661 mmHg 37%
    11:00 +25°C° 0 mm 2 m/s 661 mmHg 35%
    12:00 +26°C° 0 mm 3 m/s 661 mmHg 32%
    13:00 +27°C° 0 mm 3 m/s 661 mmHg 31%
    14:00 +27°C° 0 mm 2 m/s 661 mmHg 30%
    15:00 +28°C° 0 mm 2 m/s 661 mmHg 29%
    16:00 +27°C° 0.1 mm 2 m/s 661 mmHg 32%
    17:00 +27°C° 0.1 mm 2 m/s 661 mmHg 36%
    18:00 +26°C° 0.1 mm 1 m/s 661 mmHg 39%
    19:00 +24°C° 0.1 mm 2 m/s 661 mmHg 45%
    20:00 +21°C° 0.1 mm 3 m/s 661 mmHg 52%
    21:00 +19°C° 0.1 mm 4 m/s 662 mmHg 58%
    22:00 +18°C° 0 mm 4 m/s 662 mmHg 59%
    23:00 +17°C° 0 mm 3 m/s 662 mmHg 60%

    28 Mai, Mardi

    Heure Température Précipitation Vent Pression Humidité
    00:00 +17°C° 0 mm 3 m/s 662 mmHg 61%
    01:00 +16°C° 0 mm 3 m/s 662 mmHg 62%
    02:00 +16°C° 0 mm 3 m/s 662 mmHg 63%
    03:00 +14°C° 0 mm 3 m/s 662 mmHg 63%
    04:00 +16°C° 0 mm 3 m/s 662 mmHg 63%
    05:00 +17°C° 0 mm 2 m/s 663 mmHg 63%
    06:00 +17°C° 0 mm 2 m/s 663 mmHg 63%
    07:00 +19°C° 0 mm 2 m/s 663 mmHg 56%
    08:00 +21°C° 0 mm 2 m/s 663 mmHg 49%
    09:00 +24°C° 0 mm 1 m/s 664 mmHg 42%
    10:00 +25°C° 0 mm 1 m/s 664 mmHg 39%
    11:00 +26°C° 0 mm 2 m/s 664 mmHg 36%
    12:00 +27°C° 0 mm 2 m/s 664 mmHg 33%
    13:00 +28°C° 0 mm 2 m/s 663 mmHg 32%
    14:00 +28°C° 0 mm 2 m/s 663 mmHg 31%
    15:00 +28°C° 0 mm 2 m/s 663 mmHg 30%
    16:00 +28°C° 0 mm 2 m/s 663 mmHg 34%
    17:00 +27°C° 0 mm 2 m/s 663 mmHg 38%
    18:00 +26°C° 0 mm 2 m/s 663 mmHg 42%
    19:00 +24°C° 0 mm 2 m/s 663 mmHg 51%
    20:00 +21°C° 0 mm 2 m/s 663 mmHg 60%
    21:00 +19°C° 0 mm 3 m/s 663 mmHg 69%
    22:00 +19°C° 0 mm 3 m/s 663 mmHg 72%
    23:00 +18°C° 0 mm 3 m/s 663 mmHg 75%
    Voir plus